Private Wetterstation Sandau
Wetterdaten: Mittwoch, 03.10.2012
Datum Zeit Temp. A. Feuchte A. Luftdruck Regen Wind Richtung Richtung Taupunkt Windchill
03.10.2012 00:01 12,4 C 80 % 1015,7 hPa 0,0 l/m 7,9 km/h (2 Bft) S 180 9,0 C 12,4 C
03.10.2012 00:06 12,4 C 80 % 1015,5 hPa 0,0 l/m 4,7 km/h (1 Bft) SO 135 9,0 C 12,4 C
03.10.2012 00:11 12,5 C 80 % 1015,6 hPa 0,0 l/m 3,2 km/h (1 Bft) SW 225 9,1 C 12,5 C
03.10.2012 00:16 12,6 C 80 % 1015,6 hPa 0,0 l/m 3,6 km/h (1 Bft) S-SW 202 9,2 C 12,6 C
03.10.2012 00:21 12,6 C 80 % 1015,4 hPa 0,0 l/m 3,6 km/h (1 Bft) S-SW 202 9,2 C 12,6 C
03.10.2012 00:26 12,6 C 80 % 1015,4 hPa 0,0 l/m 1,8 km/h (1 Bft) S-SO 157 9,2 C 12,6 C
03.10.2012 00:31 12,7 C 80 % 1015,4 hPa 0,0 l/m 0,0 km/h (0 Bft) S 180 9,3 C 12,7 C
03.10.2012 00:36 12,7 C 80 % 1015,3 hPa 0,0 l/m 3,6 km/h (1 Bft) S-SW 202 9,3 C 12,7 C
03.10.2012 00:41 12,7 C 80 % 1015,3 hPa 0,0 l/m 2,5 km/h (1 Bft) SO 135 9,3 C 12,7 C
03.10.2012 00:46 12,6 C 80 % 1015,3 hPa 0,0 l/m 3,2 km/h (1 Bft) S 180 9,2 C 12,6 C
03.10.2012 00:51 12,6 C 81 % 1015,2 hPa 0,0 l/m 2,2 km/h (1 Bft) S 180 9,4 C 12,6 C
03.10.2012 00:56 12,6 C 81 % 1015,2 hPa 0,0 l/m 4,7 km/h (1 Bft) S 180 9,4 C 12,6 C
03.10.2012 01:01 12,6 C 81 % 1015,2 hPa 0,0 l/m 2,9 km/h (1 Bft) S 180 9,4 C 12,6 C
03.10.2012 01:06 12,6 C 81 % 1015,3 hPa 0,0 l/m 4,7 km/h (1 Bft) SW 225 9,4 C 12,6 C
03.10.2012 01:11 12,6 C 81 % 1015,1 hPa 0,0 l/m 4,0 km/h (1 Bft) S-SW 202 9,4 C 12,6 C
03.10.2012 01:16 12,6 C 81 % 1015,0 hPa 0,0 l/m 6,1 km/h (2 Bft) S-SO 157 9,4 C 12,6 C
03.10.2012 01:21 12,7 C 81 % 1015,1 hPa 0,0 l/m 3,6 km/h (1 Bft) SW 225 9,5 C 12,7 C
03.10.2012 01:26 12,7 C 81 % 1015,0 hPa 0,0 l/m 2,5 km/h (1 Bft) S 180 9,5 C 12,7 C
03.10.2012 01:31 12,8 C 81 % 1015,1 hPa 0,0 l/m 6,5 km/h (2 Bft) S-SO 157 9,6 C 12,8 C
03.10.2012 01:36 12,8 C 81 % 1015,1 hPa 0,0 l/m 0,0 km/h (0 Bft) S 180 9,6 C 12,8 C
03.10.2012 01:41 12,8 C 81 % 1015,1 hPa 0,0 l/m 2,2 km/h (1 Bft) S-SO 157 9,6 C 12,8 C
03.10.2012 01:46 12,8 C 81 % 1015,0 hPa 0,0 l/m 3,2 km/h (1 Bft) S-SO 157 9,6 C 12,8 C
03.10.2012 01:51 12,8 C 81 % 1015,0 hPa 0,0 l/m 4,3 km/h (1 Bft) S-SO 157 9,6 C 12,8 C
03.10.2012 01:56 12,8 C 81 % 1015,1 hPa 0,0 l/m 1,8 km/h (1 Bft) SW 225 9,6 C 12,8 C
03.10.2012 02:01 12,8 C 82 % 1014,9 hPa 0,0 l/m 2,9 km/h (1 Bft) S 180 9,8 C 12,8 C
03.10.2012 02:06 12,8 C 82 % 1014,7 hPa 0,0 l/m 1,8 km/h (1 Bft) S 180 9,8 C 12,8 C
03.10.2012 02:11 12,8 C 81 % 1014,7 hPa 0,0 l/m 3,6 km/h (1 Bft) S 180 9,6 C 12,8 C
03.10.2012 02:16 12,8 C 82 % 1014,7 hPa 0,0 l/m 4,0 km/h (1 Bft) S-SO 157 9,8 C 12,8 C
03.10.2012 02:21 12,8 C 82 % 1014,7 hPa 0,0 l/m 8,6 km/h (2 Bft) S 180 9,8 C 12,8 C
03.10.2012 02:26 12,8 C 82 % 1014,7 hPa 0,0 l/m 1,4 km/h (1 Bft) S-SW 202 9,8 C 12,8 C
03.10.2012 02:31 12,8 C 81 % 1014,6 hPa 0,0 l/m 10,8 km/h (2 Bft) S 180 9,6 C 12,8 C
03.10.2012 02:36 12,8 C 82 % 1014,6 hPa 0,0 l/m 3,2 km/h (1 Bft) S 180 9,8 C 12,8 C
03.10.2012 02:41 12,8 C 81 % 1014,7 hPa 0,0 l/m 4,7 km/h (1 Bft) S-SO 157 9,6 C 12,8 C
03.10.2012 02:46 12,8 C 81 % 1014,6 hPa 0,0 l/m 2,2 km/h (1 Bft) S 180 9,6 C 12,8 C
03.10.2012 02:51 12,9 C 81 % 1014,6 hPa 0,0 l/m 4,0 km/h (1 Bft) W-SW 247 9,7 C 12,9 C
03.10.2012 02:56 12,9 C 81 % 1014,5 hPa 0,0 l/m 4,0 km/h (1 Bft) S-SO 157 9,7 C 12,9 C
03.10.2012 03:01 12,9 C 81 % 1014,5 hPa 0,0 l/m 2,9 km/h (1 Bft) S-SO 157 9,7 C 12,9 C
03.10.2012 03:06 12,9 C 81 % 1014,5 hPa 0,0 l/m 2,9 km/h (1 Bft) S-SO 157 9,7 C 12,9 C
03.10.2012 03:11 12,9 C 81 % 1014,6 hPa 0,0 l/m 3,6 km/h (1 Bft) S-SO 157 9,7 C 12,9 C
03.10.2012 03:16 12,9 C 81 % 1014,5 hPa 0,0 l/m 4,0 km/h (1 Bft) S 180 9,7 C 12,9 C
03.10.2012 03:21 12,9 C 81 % 1014,5 hPa 0,0 l/m 4,0 km/h (1 Bft) SO 135 9,7 C 12,9 C
03.10.2012 03:26 12,9 C 81 % 1014,5 hPa 0,0 l/m 5,4 km/h (1 Bft) S 180 9,7 C 12,9 C
03.10.2012 03:31 12,9 C 81 % 1014,4 hPa 0,0 l/m 2,9 km/h (1 Bft) S-SO 157 9,7 C 12,9 C
03.10.2012 03:36 12,9 C 81 % 1014,4 hPa 0,0 l/m 3,6 km/h (1 Bft) S-SO 157 9,7 C 12,9 C
03.10.2012 03:41 12,9 C 81 % 1014,4 hPa 0,0 l/m 10,1 km/h (2 Bft) SW 225 9,7 C 12,9 C
03.10.2012 03:46 12,9 C 81 % 1014,4 hPa 0,0 l/m 6,1 km/h (2 Bft) S 180 9,7 C 12,9 C
03.10.2012 03:51 12,9 C 81 % 1014,4 hPa 0,0 l/m 5,0 km/h (1 Bft) SO 135 9,7 C 12,9 C
03.10.2012 03:56 12,8 C 81 % 1014,4 hPa 0,0 l/m 3,6 km/h (1 Bft) S-SO 157 9,6 C 12,8 C
03.10.2012 04:01 12,8 C 81 % 1014,5 hPa 0,0 l/m 5,8 km/h (2 Bft) W-SW 247 9,6 C 12,8 C
03.10.2012 04:06 12,8 C 81 % 1014,3 hPa 0,0 l/m 3,2 km/h (1 Bft) SO 135 9,6 C 12,8 C
03.10.2012 04:11 12,8 C 81 % 1014,2 hPa 0,0 l/m 3,6 km/h (1 Bft) S-SO 157 9,6 C 12,8 C
03.10.2012 04:16 12,8 C 81 % 1014,1 hPa 0,0 l/m 2,5 km/h (1 Bft) S-SO 157 9,6 C 12,8 C
03.10.2012 04:21 12,8 C 81 % 1014,2 hPa 0,0 l/m 6,1 km/h (2 Bft) SW 225 9,6 C 12,8 C
03.10.2012 04:26 12,8 C 81 % 1014,2 hPa 0,0 l/m 4,3 km/h (1 Bft) SO 135 9,6 C 12,8 C
03.10.2012 04:31 12,6 C 81 % 1014,1 hPa 0,0 l/m 4,7 km/h (1 Bft) S 180 9,4 C 12,6 C
03.10.2012 04:36 12,5 C 81 % 1014,1 hPa 0,0 l/m 2,2 km/h (1 Bft) S-SW 202 9,3 C 12,5 C
03.10.2012 04:41 12,4 C 81 % 1014,1 hPa 0,0 l/m 3,2 km/h (1 Bft) S-SW 202 9,2 C 12,4 C
03.10.2012 04:46 12,4 C 81 % 1014,1 hPa 0,0 l/m 5,4 km/h (1 Bft) SW 225 9,2 C 12,4 C
03.10.2012 04:51 12,3 C 81 % 1014,2 hPa 0,0 l/m 4,0 km/h (1 Bft) S-SO 157 9,1 C 12,3 C
03.10.2012 04:56 12,2 C 81 % 1014,0 hPa 0,0 l/m 2,5 km/h (1 Bft) S 180 9,0 C 12,2 C
03.10.2012 05:01 12,1 C 81 % 1014,1 hPa 0,0 l/m 5,0 km/h (1 Bft) S-SW 202 8,9 C 12,1 C
03.10.2012 05:06 12,0 C 81 % 1014,0 hPa 0,0 l/m 5,0 km/h (1 Bft) SW 225 8,8 C 12,0 C
03.10.2012 05:11 11,9 C 81 % 1013,9 hPa 0,0 l/m 0,0 km/h (0 Bft) S-SW 202 8,7 C 11,9 C
03.10.2012 05:16 11,8 C 81 % 1013,8 hPa 0,0 l/m 5,4 km/h (1 Bft) S 180 8,6 C 11,8 C
03.10.2012 05:21 11,8 C 82 % 1013,9 hPa 0,0 l/m 3,2 km/h (1 Bft) S-SW 202 8,8 C 11,8 C
03.10.2012 05:26 11,6 C 82 % 1013,8 hPa 0,0 l/m 3,2 km/h (1 Bft) S-SW 202 8,6 C 11,6 C
03.10.2012 05:31 11,6 C 82 % 1013,8 hPa 0,0 l/m 2,2 km/h (1 Bft) S-SO 157 8,6 C 11,6 C
03.10.2012 05:36 11,5 C 82 % 1013,8 hPa 0,0 l/m 0,0 km/h (0 Bft) S-SO 157 8,5 C 11,5 C
03.10.2012 05:41 11,4 C 82 % 1013,7 hPa 0,0 l/m 7,6 km/h (2 Bft) SW 225 8,4 C 11,4 C
03.10.2012 05:46 11,3 C 82 % 1013,5 hPa 0,0 l/m 6,5 km/h (2 Bft) S-SW 202 8,3 C 11,3 C
03.10.2012 05:51 11,3 C 82 % 1013,7 hPa 0,0 l/m 6,5 km/h (2 Bft) S-SW 202 8,3 C 11,3 C
03.10.2012 05:56 11,2 C 83 % 1013,8 hPa 0,0 l/m 3,6 km/h (1 Bft) S-SO 157 8,4 C 11,2 C
03.10.2012 06:01 11,1 C 83 % 1013,7 hPa 0,0 l/m 4,7 km/h (1 Bft) S-SW 202 8,3 C 11,1 C
03.10.2012 06:06 11,1 C 83 % 1013,7 hPa 0,0 l/m 4,0 km/h (1 Bft) SO 135 8,3 C 11,1 C
03.10.2012 06:11 11,0 C 83 % 1013,6 hPa 0,0 l/m 5,4 km/h (1 Bft) SW 225 8,2 C 11,0 C
03.10.2012 06:16 10,9 C 83 % 1013,6 hPa 0,0 l/m 0,0 km/h (0 Bft) S-SO 157 8,1 C 10,9 C
03.10.2012 06:21 10,9 C 83 % 1013,6 hPa 0,0 l/m 2,5 km/h (1 Bft) S-SO 157 8,1 C 10,9 C
03.10.2012 06:26 10,9 C 83 % 1013,7 hPa 0,0 l/m 6,8 km/h (2 Bft) S-SW 202 8,1 C 10,9 C
03.10.2012 06:31 10,8 C 83 % 1013,5 hPa 0,0 l/m 4,3 km/h (1 Bft) S-SO 157 8,0 C 10,8 C
03.10.2012 06:36 10,7 C 83 % 1013,3 hPa 0,0 l/m 4,3 km/h (1 Bft) S-SW 202 7,9 C 10,7 C
03.10.2012 06:41 10,6 C 83 % 1013,3 hPa 0,0 l/m 3,6 km/h (1 Bft) SW 225 7,8 C 10,6 C
03.10.2012 06:46 10,6 C 83 % 1013,4 hPa 0,0 l/m 4,0 km/h (1 Bft) S 180 7,8 C 10,6 C
03.10.2012 06:51 10,5 C 83 % 1013,3 hPa 0,0 l/m 5,0 km/h (1 Bft) S-SW 202 7,7 C 10,5 C
03.10.2012 06:56 10,4 C 84 % 1013,4 hPa 0,0 l/m 9,4 km/h (2 Bft) SW 225 7,8 C 10,4 C
03.10.2012 07:01 10,4 C 84 % 1013,4 hPa 0,0 l/m 9,4 km/h (2 Bft) S-SW 202 7,8 C 10,4 C
03.10.2012 07:06 10,3 C 84 % 1013,4 hPa 0,0 l/m 7,2 km/h (2 Bft) S 180 7,7 C 10,3 C
03.10.2012 07:11 10,3 C 84 % 1013,4 hPa 0,0 l/m 5,0 km/h (1 Bft) S 180 7,7 C 10,3 C
03.10.2012 07:16 10,2 C 84 % 1013,4 hPa 0,0 l/m 3,6 km/h (1 Bft) S-SW 202 7,6 C 10,2 C
03.10.2012 07:21 10,2 C 84 % 1013,5 hPa 0,0 l/m 0,0 km/h (0 Bft) SW 225 7,6 C 10,2 C
03.10.2012 07:26 10,1 C 85 % 1013,4 hPa 0,0 l/m 0,0 km/h (0 Bft) SW 225 7,7 C 10,1 C
03.10.2012 07:31 10,1 C 85 % 1013,3 hPa 0,0 l/m 3,2 km/h (1 Bft) S-SO 157 7,7 C 10,1 C
03.10.2012 07:36 10,0 C 85 % 1013,3 hPa 0,0 l/m 4,7 km/h (1 Bft) S-SW 202 7,6 C 9,8 C
03.10.2012 07:41 9,9 C 85 % 1013,3 hPa 0,0 l/m 4,3 km/h (1 Bft) S 180 7,5 C 9,9 C
03.10.2012 07:46 9,9 C 85 % 1013,3 hPa 0,0 l/m 1,1 km/h (1 Bft) S-SO 157 7,5 C 9,9 C
03.10.2012 07:51 9,9 C 85 % 1013,3 hPa 0,0 l/m 4,0 km/h (1 Bft) S-SO 157 7,5 C 9,9 C
03.10.2012 07:56 9,9 C 85 % 1013,2 hPa 0,0 l/m 2,5 km/h (1 Bft) S 180 7,5 C 9,9 C
03.10.2012 08:01 9,9 C 85 % 1013,2 hPa 0,0 l/m 2,2 km/h (1 Bft) S 180 7,5 C 9,9 C
03.10.2012 08:06 9,9 C 86 % 1013,2 hPa 0,0 l/m 2,2 km/h (1 Bft) S-SO 157 7,7 C 9,9 C
03.10.2012 08:11 9,9 C 86 % 1013,2 hPa 0,0 l/m 5,8 km/h (2 Bft) S-SW 202 7,7 C 9,4 C
03.10.2012 08:16 10,0 C 86 % 1013,1 hPa 0,0 l/m 5,0 km/h (1 Bft) S-SO 157 7,8 C 9,8 C
03.10.2012 08:21 10,1 C 86 % 1013,2 hPa 0,0 l/m 4,7 km/h (1 Bft) S-SO 157 7,9 C 10,1 C
03.10.2012 08:26 10,1 C 86 % 1013,3 hPa 0,0 l/m 2,5 km/h (1 Bft) S-SW 202 7,9 C 10,1 C
03.10.2012 08:31 10,3 C 86 % 1013,3 hPa 0,0 l/m 2,9 km/h (1 Bft) S-SO 157 8,1 C 10,3 C
03.10.2012 08:36 10,4 C 86 % 1013,1 hPa 0,0 l/m 3,6 km/h (1 Bft) S-SW 202 8,2 C 10,4 C
03.10.2012 08:41 10,6 C 86 % 1013,1 hPa 0,0 l/m 8,3 km/h (2 Bft) SW 225 8,4 C 10,6 C
03.10.2012 08:46 10,7 C 86 % 1013,0 hPa 0,0 l/m 10,8 km/h (2 Bft) S-SW 202 8,5 C 10,7 C
03.10.2012 08:51 10,8 C 86 % 1012,9 hPa 0,0 l/m 1,4 km/h (1 Bft) SW 225 8,6 C 10,8 C
03.10.2012 08:56 11,0 C 86 % 1012,8 hPa 0,0 l/m 4,0 km/h (1 Bft) S-SW 202 8,7 C 11,0 C
03.10.2012 09:01 11,2 C 85 % 1012,9 hPa 0,0 l/m 10,1 km/h (2 Bft) S 180 8,8 C 11,2 C
03.10.2012 09:06 11,3 C 85 % 1013,0 hPa 0,0 l/m 5,0 km/h (1 Bft) S-SW 202 8,9 C 11,3 C
03.10.2012 09:11 11,5 C 85 % 1013,0 hPa 0,0 l/m 9,4 km/h (2 Bft) S 180 9,1 C 11,5 C
03.10.2012 09:16 11,8 C 85 % 1012,9 hPa 0,0 l/m 4,7 km/h (1 Bft) S-SW 202 9,4 C 11,8 C
03.10.2012 09:21 11,9 C 84 % 1012,9 hPa 0,0 l/m 5,4 km/h (1 Bft) S 180 9,3 C 11,9 C
03.10.2012 09:26 12,2 C 84 % 1012,8 hPa 0,0 l/m 13,0 km/h (3 Bft) S-SW 202 9,6 C 12,2 C
03.10.2012 09:31 12,4 C 84 % 1012,8 hPa 0,0 l/m 6,8 km/h (2 Bft) S-SW 202 9,8 C 12,4 C
03.10.2012 09:36 12,6 C 83 % 1012,9 hPa 0,0 l/m 3,2 km/h (1 Bft) S-SW 202 9,8 C 12,6 C
03.10.2012 09:41 12,9 C 83 % 1013,0 hPa 0,0 l/m 3,2 km/h (1 Bft) SW 225 10,1 C 12,9 C
03.10.2012 09:46 13,2 C 82 % 1013,1 hPa 0,0 l/m 5,0 km/h (1 Bft) S-SO 157 10,2 C 13,2 C
03.10.2012 09:51 13,5 C 82 % 1013,2 hPa 0,0 l/m 4,0 km/h (1 Bft) SW 225 10,5 C 13,5 C
03.10.2012 09:56 13,8 C 81 % 1013,2 hPa 0,0 l/m 10,8 km/h (2 Bft) W-SW 247 10,6 C 13,8 C
03.10.2012 10:01 14,1 C 79 % 1013,0 hPa 0,0 l/m 15,1 km/h (3 Bft) S-SW 202 10,5 C 14,1 C
03.10.2012 10:06 14,3 C 78 % 1012,9 hPa 0,0 l/m 7,6 km/h (2 Bft) S-SW 202 10,5 C 14,3 C
03.10.2012 10:11 14,5 C 78 % 1012,9 hPa 0,0 l/m 8,3 km/h (2 Bft) SO 135 10,7 C 14,5 C
03.10.2012 10:16 14,8 C 77 % 1012,8 hPa 0,0 l/m 6,5 km/h (2 Bft) SW 225 10,8 C 14,8 C
03.10.2012 10:21 14,9 C 75 % 1012,7 hPa 0,0 l/m 13,3 km/h (3 Bft) SW 225 10,5 C 14,9 C
03.10.2012 10:26 15,0 C 75 % 1012,8 hPa 0,0 l/m 11,2 km/h (2 Bft) S-SW 202 10,6 C 15,0 C
03.10.2012 10:31 15,3 C 74 % 1012,8 hPa 0,0 l/m 12,2 km/h (2 Bft) W-SW 247 10,7 C 15,3 C
03.10.2012 10:36 15,5 C 73 % 1012,8 hPa 0,0 l/m 7,2 km/h (2 Bft) S 180 10,7 C 15,5 C
03.10.2012 10:41 15,6 C 72 % 1012,9 hPa 0,0 l/m 22,7 km/h (4 Bft) W-SW 247 10,6 C 15,6 C
03.10.2012 10:46 15,8 C 71 % 1012,8 hPa 0,0 l/m 17,6 km/h (3 Bft) SW 225 10,6 C 15,8 C
03.10.2012 10:51 15,9 C 71 % 1012,9 hPa 0,0 l/m 14,0 km/h (3 Bft) S-SW 202 10,6 C 15,9 C
03.10.2012 10:56 16,0 C 71 % 1012,8 hPa 0,0 l/m 24,5 km/h (4 Bft) W-SW 247 10,7 C 16,0 C
03.10.2012 11:01 16,2 C 70 % 1012,8 hPa 0,0 l/m 15,8 km/h (3 Bft) W-SW 247 10,7 C 16,2 C
03.10.2012 11:06 16,3 C 69 % 1012,8 hPa 0,0 l/m 23,4 km/h (4 Bft) W-SW 247 10,6 C 16,3 C
03.10.2012 11:11 16,3 C 69 % 1012,7 hPa 0,0 l/m 19,1 km/h (3 Bft) W-SW 247 10,6 C 16,3 C
03.10.2012 11:16 16,5 C 69 % 1012,6 hPa 0,0 l/m 10,4 km/h (2 Bft) S-SW 202 10,8 C 16,5 C
03.10.2012 11:21 16,7 C 68 % 1012,6 hPa 0,0 l/m 6,5 km/h (2 Bft) W-SW 247 10,8 C 16,7 C
03.10.2012 11:26 16,8 C 68 % 1012,5 hPa 0,0 l/m 8,3 km/h (2 Bft) S-SW 202 10,9 C 16,8 C
03.10.2012 11:31 16,9 C 67 % 1012,5 hPa 0,0 l/m 7,6 km/h (2 Bft) O-SO 112 10,7 C 16,9 C
03.10.2012 11:36 17,0 C 67 % 1012,4 hPa 0,0 l/m 10,4 km/h (2 Bft) SW 225 10,8 C 17,0 C
03.10.2012 11:41 17,1 C 66 % 1012,4 hPa 0,0 l/m 13,0 km/h (3 Bft) W-SW 247 10,7 C 17,1 C
03.10.2012 11:46 17,2 C 67 % 1012,3 hPa 0,0 l/m 10,1 km/h (2 Bft) S-SW 202 11,0 C 17,2 C
03.10.2012 11:51 17,3 C 66 % 1012,2 hPa 0,0 l/m 13,7 km/h (3 Bft) SW 225 10,9 C 17,3 C
03.10.2012 11:56 17,4 C 65 % 1012,1 hPa 0,0 l/m 10,4 km/h (2 Bft) S-SW 202 10,8 C 17,4 C
03.10.2012 12:01 17,5 C 65 % 1012,1 hPa 0,0 l/m 8,3 km/h (2 Bft) S 180 10,8 C 17,5 C
03.10.2012 12:06 17,7 C 64 % 1012,1 hPa 0,0 l/m 10,1 km/h (2 Bft) SO 135 10,8 C 17,7 C
03.10.2012 12:11 17,7 C 64 % 1012,0 hPa 0,0 l/m 10,4 km/h (2 Bft) W-SW 247 10,8 C 17,7 C
03.10.2012 12:16 17,8 C 64 % 1012,0 hPa 0,0 l/m 19,8 km/h (3 Bft) SW 225 10,9 C 17,8 C
03.10.2012 12:21 17,9 C 63 % 1012,0 hPa 0,0 l/m 12,2 km/h (2 Bft) S-SO 157 10,8 C 17,9 C
03.10.2012 12:26 17,9 C 63 % 1012,0 hPa 0,0 l/m 9,4 km/h (2 Bft) S-SW 202 10,8 C 17,9 C
03.10.2012 12:31 18,1 C 63 % 1012,0 hPa 0,0 l/m 9,0 km/h (2 Bft) SW 225 10,9 C 18,1 C
03.10.2012 12:36 18,3 C 62 % 1011,8 hPa 0,0 l/m 5,8 km/h (2 Bft) S-SW 202 10,9 C 18,3 C
03.10.2012 12:41 18,4 C 61 % 1011,7 hPa 0,0 l/m 4,7 km/h (1 Bft) W-SW 247 10,7 C 18,4 C
03.10.2012 12:46 18,6 C 61 % 1011,7 hPa 0,0 l/m 19,1 km/h (3 Bft) W-SW 247 10,9 C 18,6 C
03.10.2012 12:51 18,7 C 59 % 1011,7 hPa 0,0 l/m 2,5 km/h (1 Bft) S-SW 202 10,5 C 18,7 C
03.10.2012 12:56 18,9 C 59 % 1011,8 hPa 0,0 l/m 19,1 km/h (3 Bft) W-SW 247 10,7 C 18,9 C
03.10.2012 13:01 18,9 C 58 % 1011,7 hPa 0,0 l/m 16,6 km/h (3 Bft) W-SW 247 10,5 C 18,9 C
03.10.2012 13:06 18,9 C 59 % 1011,7 hPa 0,0 l/m 15,8 km/h (3 Bft) S 180 10,7 C 18,9 C
03.10.2012 13:11 18,8 C 59 % 1011,7 hPa 0,0 l/m 8,6 km/h (2 Bft) S-SO 157 10,6 C 18,8 C
03.10.2012 13:16 18,6 C 59 % 1011,7 hPa 0,0 l/m 14,8 km/h (3 Bft) S-SW 202 10,4 C 18,6 C
03.10.2012 13:21 18,9 C 59 % 1011,7 hPa 0,0 l/m 8,3 km/h (2 Bft) S-SW 202 10,7 C 18,9 C
03.10.2012 13:26 19,3 C 58 % 1011,7 hPa 0,0 l/m 15,8 km/h (3 Bft) W-SW 247 10,8 C 19,3 C
03.10.2012 13:31 19,5 C 57 % 1011,7 hPa 0,0 l/m 14,0 km/h (3 Bft) S-SW 202 10,8 C 19,5 C
03.10.2012 13:36 19,3 C 57 % 1011,5 hPa 0,0 l/m 15,8 km/h (3 Bft) W 270 10,6 C 19,3 C
03.10.2012 13:41 19,1 C 57 % 1011,5 hPa 0,0 l/m 12,2 km/h (2 Bft) S-SW 202 10,4 C 19,1 C
03.10.2012 13:46 18,9 C 57 % 1011,6 hPa 0,0 l/m 6,1 km/h (2 Bft) W 270 10,2 C 18,9 C
03.10.2012 13:51 18,8 C 58 % 1011,5 hPa 0,0 l/m 12,6 km/h (3 Bft) W 270 10,4 C 18,8 C
03.10.2012 13:56 18,6 C 58 % 1011,5 hPa 0,0 l/m 15,5 km/h (3 Bft) SW 225 10,2 C 18,6 C
03.10.2012 14:01 18,6 C 58 % 1011,4 hPa 0,0 l/m 9,0 km/h (2 Bft) W-SW 247 10,2 C 18,6 C
03.10.2012 14:06 18,6 C 58 % 1011,3 hPa 0,0 l/m 13,7 km/h (3 Bft) SW 225 10,2 C 18,6 C
03.10.2012 14:11 18,6 C 58 % 1011,3 hPa 0,0 l/m 13,3 km/h (3 Bft) SW 225 10,2 C 18,6 C
03.10.2012 14:16 18,5 C 58 % 1011,3 hPa 0,0 l/m 23,0 km/h (4 Bft) W-SW 247 10,1 C 18,5 C
03.10.2012 14:21 18,4 C 59 % 1011,4 hPa 0,0 l/m 9,7 km/h (2 Bft) S-SW 202 10,2 C 18,4 C
03.10.2012 14:26 18,4 C 59 % 1011,4 hPa 0,0 l/m 10,4 km/h (2 Bft) SW 225 10,2 C 18,4 C
03.10.2012 14:31 18,4 C 59 % 1011,4 hPa 0,0 l/m 6,5 km/h (2 Bft) SW 225 10,2 C 18,4 C
03.10.2012 14:36 18,6 C 60 % 1011,3 hPa 0,0 l/m 19,8 km/h (3 Bft) W-SW 247 10,7 C 18,6 C
03.10.2012 14:41 18,8 C 59 % 1011,1 hPa 0,0 l/m 8,3 km/h (2 Bft) SW 225 10,6 C 18,8 C
03.10.2012 14:46 18,9 C 59 % 1011,0 hPa 0,0 l/m 2,5 km/h (1 Bft) W 270 10,7 C 18,9 C
03.10.2012 14:51 19,2 C 58 % 1011,1 hPa 0,0 l/m 9,4 km/h (2 Bft) SW 225 10,7 C 19,2 C
03.10.2012 14:56 19,4 C 57 % 1011,1 hPa 0,0 l/m 13,0 km/h (3 Bft) W 270 10,7 C 19,4 C
03.10.2012 15:01 19,5 C 56 % 1011,0 hPa 0,0 l/m 13,3 km/h (3 Bft) W 270 10,5 C 19,5 C
03.10.2012 15:06 19,5 C 56 % 1011,0 hPa 0,0 l/m 9,0 km/h (2 Bft) S-SW 202 10,5 C 19,5 C
03.10.2012 15:11 19,5 C 56 % 1011,0 hPa 0,0 l/m 12,6 km/h (3 Bft) S-SW 202 10,5 C 19,5 C
03.10.2012 15:16 19,9 C 56 % 1011,2 hPa 0,0 l/m 37,8 km/h (5 Bft) W 270 10,9 C 19,9 C
03.10.2012 15:21 19,9 C 55 % 1011,3 hPa 0,0 l/m 20,5 km/h (4 Bft) SW 225 10,6 C 19,9 C
03.10.2012 15:26 19,8 C 54 % 1011,2 hPa 0,0 l/m 19,1 km/h (3 Bft) W 270 10,2 C 19,8 C
03.10.2012 15:31 19,7 C 54 % 1011,3 hPa 0,0 l/m 23,0 km/h (4 Bft) W 270 10,1 C 19,7 C
03.10.2012 15:36 19,4 C 55 % 1011,4 hPa 0,0 l/m 15,8 km/h (3 Bft) S-SW 202 10,1 C 19,4 C
03.10.2012 15:41 19,3 C 56 % 1011,4 hPa 0,0 l/m 14,8 km/h (3 Bft) SW 225 10,3 C 19,3 C
03.10.2012 15:46 19,1 C 56 % 1011,3 hPa 0,0 l/m 16,9 km/h (3 Bft) SW 225 10,1 C 19,1 C
03.10.2012 15:51 19,0 C 56 % 1011,2 hPa 0,0 l/m 15,5 km/h (3 Bft) W-SW 247 10,0 C 19,0 C
03.10.2012 15:56 18,9 C 56 % 1011,3 hPa 0,0 l/m 19,8 km/h (3 Bft) W-SW 247 9,9 C 18,9 C
03.10.2012 16:01 18,8 C 55 % 1011,3 hPa 0,0 l/m 25,6 km/h (4 Bft) SW 225 9,6 C 18,8 C
03.10.2012 16:06 18,6 C 56 % 1011,1 hPa 0,0 l/m 8,3 km/h (2 Bft) SW 225 9,6 C 18,6 C
03.10.2012 16:11 18,6 C 56 % 1011,0 hPa 0,0 l/m 12,2 km/h (2 Bft) W-SW 247 9,6 C 18,6 C
03.10.2012 16:16 18,6 C 56 % 1011,0 hPa 0,0 l/m 7,9 km/h (2 Bft) S-SW 202 9,6 C 18,6 C
03.10.2012 16:21 18,4 C 57 % 1011,0 hPa 0,0 l/m 17,3 km/h (3 Bft) S 180 9,7 C 18,4 C
03.10.2012 16:26 18,3 C 57 % 1011,0 hPa 0,0 l/m 14,8 km/h (3 Bft) SW 225 9,6 C 18,3 C
03.10.2012 16:31 18,2 C 57 % 1011,0 hPa 0,0 l/m 23,4 km/h (4 Bft) W-SW 247 9,5 C 18,2 C
03.10.2012 16:36 18,1 C 58 % 1011,0 hPa 0,0 l/m 4,0 km/h (1 Bft) SW 225 9,7 C 18,1 C
03.10.2012 16:41 18,1 C 58 % 1011,0 hPa 0,0 l/m 11,2 km/h (2 Bft) W 270 9,7 C 18,1 C
03.10.2012 16:46 18,1 C 58 % 1011,0 hPa 0,0 l/m 8,3 km/h (2 Bft) S 180 9,7 C 18,1 C
03.10.2012 16:51 18,1 C 58 % 1011,0 hPa 0,0 l/m 10,8 km/h (2 Bft) SW 225 9,7 C 18,1 C
03.10.2012 16:56 18,1 C 58 % 1010,9 hPa 0,0 l/m 5,0 km/h (1 Bft) W-SW 247 9,7 C 18,1 C
03.10.2012 17:01 18,1 C 58 % 1011,0 hPa 0,0 l/m 6,8 km/h (2 Bft) W-SW 247 9,7 C 18,1 C
03.10.2012 17:06 18,1 C 58 % 1010,9 hPa 0,0 l/m 8,6 km/h (2 Bft) SW 225 9,7 C 18,1 C
03.10.2012 17:11 18,1 C 58 % 1010,8 hPa 0,0 l/m 7,6 km/h (2 Bft) SW 225 9,7 C 18,1 C
03.10.2012 17:16 18,1 C 58 % 1010,8 hPa 0,0 l/m 16,9 km/h (3 Bft) SW 225 9,7 C 18,1 C
03.10.2012 17:21 18,1 C 58 % 1010,8 hPa 0,0 l/m 5,8 km/h (2 Bft) S-SW 202 9,7 C 18,1 C
03.10.2012 17:26 17,9 C 59 % 1010,8 hPa 0,0 l/m 12,2 km/h (2 Bft) S 180 9,8 C 17,9 C
03.10.2012 17:31 17,9 C 59 % 1010,7 hPa 0,0 l/m 4,7 km/h (1 Bft) SW 225 9,8 C 17,9 C
03.10.2012 17:36 17,9 C 59 % 1010,9 hPa 0,0 l/m 14,0 km/h (3 Bft) S-SO 157 9,8 C 17,9 C
03.10.2012 17:41 17,9 C 59 % 1010,7 hPa 0,0 l/m 11,5 km/h (2 Bft) SW 225 9,8 C 17,9 C
03.10.2012 17:46 17,8 C 60 % 1010,7 hPa 0,0 l/m 6,8 km/h (2 Bft) S-SW 202 9,9 C 17,8 C
03.10.2012 17:51 17,8 C 60 % 1010,7 hPa 0,0 l/m 9,7 km/h (2 Bft) S-SO 157 9,9 C 17,8 C
03.10.2012 17:56 17,8 C 60 % 1010,8 hPa 0,0 l/m 14,4 km/h (3 Bft) S-SW 202 9,9 C 17,8 C
03.10.2012 18:01 17,8 C 60 % 1010,5 hPa 0,0 l/m 7,6 km/h (2 Bft) S-SW 202 9,9 C 17,8 C
03.10.2012 18:06 17,8 C 60 % 1010,5 hPa 0,0 l/m 8,6 km/h (2 Bft) SW 225 9,9 C 17,8 C
03.10.2012 18:11 17,6 C 60 % 1010,4 hPa 0,0 l/m 11,2 km/h (2 Bft) S 180 9,7 C 17,6 C
03.10.2012 18:16 17,5 C 61 % 1010,4 hPa 0,0 l/m 9,4 km/h (2 Bft) S 180 9,9 C 17,5 C
03.10.2012 18:21 17,3 C 61 % 1010,5 hPa 0,0 l/m 11,9 km/h (2 Bft) S-SW 202 9,7 C 17,3 C
03.10.2012 18:26 17,2 C 61 % 1010,3 hPa 0,0 l/m 5,0 km/h (1 Bft) SW 225 9,6 C 17,2 C
03.10.2012 18:31 17,0 C 62 % 1010,3 hPa 0,0 l/m 9,0 km/h (2 Bft) S 180 9,7 C 17,0 C
03.10.2012 18:36 16,9 C 62 % 1010,4 hPa 0,0 l/m 10,4 km/h (2 Bft) S 180 9,6 C 16,9 C
03.10.2012 18:41 16,7 C 63 % 1010,4 hPa 0,0 l/m 7,6 km/h (2 Bft) S-SW 202 9,6 C 16,7 C
03.10.2012 18:46 16,5 C 63 % 1010,4 hPa 0,0 l/m 7,2 km/h (2 Bft) S 180 9,4 C 16,5 C
03.10.2012 18:51 16,4 C 63 % 1010,1 hPa 0,0 l/m 8,3 km/h (2 Bft) S 180 9,3 C 16,4 C
03.10.2012 18:56 16,2 C 63 % 1010,2 hPa 0,0 l/m 7,2 km/h (2 Bft) SO 135 9,1 C 16,2 C
03.10.2012 19:01 16,1 C 64 % 1010,1 hPa 0,0 l/m 4,7 km/h (1 Bft) S-SW 202 9,3 C 16,1 C
03.10.2012 19:06 16,0 C 64 % 1010,0 hPa 0,0 l/m 7,2 km/h (2 Bft) SW 225 9,2 C 16,0 C
03.10.2012 19:11 15,9 C 64 % 1010,0 hPa 0,0 l/m 3,6 km/h (1 Bft) S-SO 157 9,1 C 15,9 C
03.10.2012 19:16 15,8 C 65 % 1010,2 hPa 0,0 l/m 2,5 km/h (1 Bft) S-SO 157 9,2 C 15,8 C
03.10.2012 19:21 15,6 C 66 % 1010,2 hPa 0,0 l/m 0,0 km/h (0 Bft) S-SO 157 9,3 C 15,6 C
03.10.2012 19:26 15,4 C 66 % 1010,3 hPa 0,0 l/m 3,2 km/h (1 Bft) S-SO 157 9,1 C 15,4 C
03.10.2012 19:31 15,3 C 66 % 1010,3 hPa 0,0 l/m 0,0 km/h (0 Bft) S 180 9,0 C 15,3 C
03.10.2012 19:36 15,2 C 67 % 1010,2 hPa 0,0 l/m 5,4 km/h (1 Bft) S-SW 202 9,1 C 15,2 C
03.10.2012 19:41 15,1 C 68 % 1010,3 hPa 0,0 l/m 6,1 km/h (2 Bft) S 180 9,2 C 15,1 C
03.10.2012 19:46 15,1 C 69 % 1010,3 hPa 0,0 l/m 8,3 km/h (2 Bft) S-SW 202 9,5 C 15,1 C
03.10.2012 19:51 15,3 C 69 % 1010,5 hPa 0,0 l/m 9,7 km/h (2 Bft) S-SW 202 9,6 C 15,3 C
03.10.2012 19:56 15,5 C 69 % 1010,6 hPa 0,0 l/m 15,1 km/h (3 Bft) S 180 9,8 C 15,5 C
03.10.2012 20:01 15,7 C 68 % 1010,8 hPa 0,0 l/m 7,6 km/h (2 Bft) SW 225 9,8 C 15,7 C
03.10.2012 20:06 15,8 C 68 % 1010,7 hPa 0,0 l/m 9,4 km/h (2 Bft) W-SW 247 9,9 C 15,8 C
03.10.2012 20:11 15,8 C 67 % 1010,7 hPa 0,0 l/m 7,6 km/h (2 Bft) S-SW 202 9,7 C 15,8 C
03.10.2012 20:16 15,8 C 67 % 1010,7 hPa 0,0 l/m 5,8 km/h (2 Bft) W-SW 247 9,7 C 15,8 C
03.10.2012 20:21 15,6 C 68 % 1010,8 hPa 0,0 l/m 16,9 km/h (3 Bft) SW 225 9,7 C 15,6 C
03.10.2012 20:26 15,6 C 68 % 1010,7 hPa 0,0 l/m 9,4 km/h (2 Bft) SW 225 9,7 C 15,6 C
03.10.2012 20:31 15,6 C 68 % 1010,7 hPa 0,0 l/m 14,4 km/h (3 Bft) S 180 9,7 C 15,6 C
03.10.2012 20:36 15,6 C 68 % 1010,7 hPa 0,0 l/m 10,8 km/h (2 Bft) SW 225 9,7 C 15,6 C
03.10.2012 20:41 15,6 C 68 % 1010,7 hPa 0,0 l/m 10,1 km/h (2 Bft) SW 225 9,7 C 15,6 C
03.10.2012 20:46 15,5 C 68 % 1010,8 hPa 0,0 l/m 10,4 km/h (2 Bft) W-SW 247 9,6 C 15,5 C
03.10.2012 20:51 15,5 C 69 % 1010,8 hPa 0,0 l/m 14,0 km/h (3 Bft) S-SW 202 9,8 C 15,5 C
03.10.2012 20:56 15,4 C 69 % 1010,7 hPa 0,0 l/m 14,0 km/h (3 Bft) W 270 9,7 C 15,4 C
03.10.2012 21:01 15,4 C 69 % 1010,8 hPa 0,0 l/m 4,7 km/h (1 Bft) SW 225 9,7 C 15,4 C
03.10.2012 21:06 15,3 C 69 % 1010,6 hPa 0,0 l/m 3,6 km/h (1 Bft) S-SW 202 9,6 C 15,3 C
03.10.2012 21:11 15,3 C 69 % 1010,5 hPa 0,0 l/m 5,8 km/h (2 Bft) S-SW 202 9,6 C 15,3 C
03.10.2012 21:16 15,1 C 69 % 1010,6 hPa 0,0 l/m 6,8 km/h (2 Bft) W 270 9,5 C 15,1 C
03.10.2012 21:21 14,9 C 69 % 1010,5 hPa 0,0 l/m 9,4 km/h (2 Bft) W-SW 247 9,3 C 14,9 C
03.10.2012 21:26 14,9 C 69 % 1010,6 hPa 0,0 l/m 4,7 km/h (1 Bft) S-SW 202 9,3 C 14,9 C
03.10.2012 21:31 14,7 C 70 % 1010,5 hPa 0,0 l/m 5,8 km/h (2 Bft) W 270 9,3 C 14,7 C
03.10.2012 21:36 14,5 C 70 % 1010,7 hPa 0,0 l/m 4,0 km/h (1 Bft) W 270 9,1 C 14,5 C
03.10.2012 21:41 14,4 C 70 % 1010,9 hPa 0,0 l/m 2,9 km/h (1 Bft) W-SW 247 9,0 C 14,4 C
03.10.2012 21:46 14,3 C 71 % 1010,8 hPa 0,0 l/m 4,7 km/h (1 Bft) SW 225 9,1 C 14,3 C
03.10.2012 21:51 14,2 C 71 % 1010,9 hPa 0,0 l/m 3,2 km/h (1 Bft) S-SW 202 9,0 C 14,2 C
03.10.2012 21:56 14,2 C 71 % 1010,7 hPa 0,0 l/m 5,4 km/h (1 Bft) SW 225 9,0 C 14,2 C
03.10.2012 22:01 14,3 C 72 % 1010,7 hPa 0,0 l/m 2,9 km/h (1 Bft) SW 225 9,3 C 14,3 C
03.10.2012 22:06 14,3 C 72 % 1010,6 hPa 0,0 l/m 5,0 km/h (1 Bft) SW 225 9,3 C 14,3 C
03.10.2012 22:11 14,2 C 72 % 1010,7 hPa 0,0 l/m 3,6 km/h (1 Bft) S-SW 202 9,2 C 14,2 C
03.10.2012 22:16 14,1 C 72 % 1010,5 hPa 0,0 l/m 5,4 km/h (1 Bft) SW 225 9,1 C 14,1 C
03.10.2012 22:21 14,1 C 72 % 1010,6 hPa 0,0 l/m 0,0 km/h (0 Bft) S 180 9,1 C 14,1 C
03.10.2012 22:26 14,0 C 72 % 1010,6 hPa 0,0 l/m 3,6 km/h (1 Bft) W-SW 247 9,0 C 14,0 C
03.10.2012 22:31 13,9 C 73 % 1010,5 hPa 0,0 l/m 2,5 km/h (1 Bft) S 180 9,1 C 13,9 C
03.10.2012 22:36 13,9 C 73 % 1010,6 hPa 0,0 l/m 5,8 km/h (2 Bft) W-SW 247 9,1 C 13,9 C
03.10.2012 22:41 13,9 C 73 % 1010,5 hPa 0,0 l/m 6,1 km/h (2 Bft) S-SW 202 9,1 C 13,9 C
03.10.2012 22:46 13,9 C 73 % 1010,5 hPa 0,0 l/m 5,4 km/h (1 Bft) S 180 9,1 C 13,9 C
03.10.2012 22:51 14,1 C 73 % 1010,2 hPa 0,0 l/m 0,0 km/h (0 Bft) S-SW 202 9,3 C 14,1 C
03.10.2012 22:56 14,1 C 73 % 1010,1 hPa 0,0 l/m 5,0 km/h (1 Bft) SW 225 9,3 C 14,1 C
03.10.2012 23:01 14,1 C 73 % 1010,0 hPa 0,0 l/m 5,0 km/h (1 Bft) S-SW 202 9,3 C 14,1 C
03.10.2012 23:06 14,1 C 73 % 1009,9 hPa 0,0 l/m 7,6 km/h (2 Bft) W-SW 247 9,3 C 14,1 C
03.10.2012 23:11 14,1 C 73 % 1009,9 hPa 0,0 l/m 6,1 km/h (2 Bft) W-SW 247 9,3 C 14,1 C
03.10.2012 23:16 14,1 C 73 % 1009,8 hPa 0,0 l/m 6,1 km/h (2 Bft) S-SW 202 9,3 C 14,1 C
03.10.2012 23:21 14,1 C 73 % 1009,9 hPa 0,0 l/m 3,2 km/h (1 Bft) SW 225 9,3 C 14,1 C
03.10.2012 23:26 14,1 C 74 % 1009,9 hPa 0,0 l/m 6,8 km/h (2 Bft) SW 225 9,5 C 14,1 C
03.10.2012 23:31 14,1 C 74 % 1009,8 hPa 0,0 l/m 6,5 km/h (2 Bft) S 180 9,5 C 14,1 C
03.10.2012 23:36 14,2 C 74 % 1009,7 hPa 0,0 l/m 6,1 km/h (2 Bft) SW 225 9,6 C 14,2 C
03.10.2012 23:41 14,3 C 73 % 1009,7 hPa 0,0 l/m 7,2 km/h (2 Bft) W-SW 247 9,5 C 14,3 C
03.10.2012 23:46 14,4 C 73 % 1009,6 hPa 0,0 l/m 7,6 km/h (2 Bft) S-SO 157 9,6 C 14,4 C
03.10.2012 23:51 14,6 C 73 % 1009,6 hPa 0,0 l/m 10,1 km/h (2 Bft) W-SW 247 9,8 C 14,6 C
03.10.2012 23:56 14,7 C 72 % 1009,5 hPa 0,0 l/m 6,8 km/h (2 Bft) S 180 9,7 C 14,7 C
_ Min-Zeit 07:41 15:26 23:56 - 00:31 - - 07:41 08:11
Minimum _ 9,9 C 54 % 1009,5 hPa - 0,0 km/h (0 Bft) - - 7,5 C 9,4 C
_ Max-Zeit 15:16 08:06 00:01 00:01 15:16 - - 11:46 15:16
Maximum _ 19,9 C 86 % 1015,7 hPa 0,0 l/m 37,8 km/h
W (5 Bft)
- - 11,0 C 19,9 C
Durchschnitt _ 14,7 C 72 % 1012,3 hPa #0,0 l/m 7,7 km/h (2 Bft) S-SW - 9,5 C 14,7 C
(c) by David Heller